星链-5228 (STARLINK-5228 )

导读

STARLINK-5228是美国SpaceX星链互联网卫星星座中的一员,于北京时间2022年10月28日发射入轨,属于星链星座的第二代卫星,主要承担为全球范围提供低延迟、高速率宽带互联网服务的任务,运行在近地轨道,依托规模化星座组网实现全球覆盖,进一步扩充了星链星座的服务能力。

Basic Information
目录编号:
54180
目录名称:
STARLINK-5228
国际标识:
2022-141Z
轨道中心:
EARTH
卫星名称:
星链-5228
卫星全名:
星链-5228 (STARLINK-5228 )
卫星状态:
已陨落 最后检测时间 2026-05-04
发射日期:
2022-10-28 UTC
国别 :
美国 (US)
星等 :
--
Orbit Information
数据来源 国际轨道数据
星历时间: 2026-05-04T11:55:12+0800
轨道信息已过期42天
半长轴: 6536.907km
偏心率: 0.0006555
轨道倾角: 53.203°
近地点辐角 269.332°
升交点赤经 88.460°
平近点角 90.698°
近地点: 154.485km
远地点: 163.055km
周期: 87.663分钟
每日圈数: 16.426473
Detailed Information
固有亮度:
5
最大亮度:
2.5
卫星平台:
Starlink v1.5
覆盖范围:
全球
运营商:
太空探索技术公司
运营商所在国:
美国
制造商(研发单位):
太空探索技术公司
制造商所在国:
美国
使用方式:
暂无
Satellite Introduction
星链(Starlink)计划是由太空探索技术公司(SpaceX)提出的一个巨型低轨卫星互联网星座项目,计划在2019年至2024年间在太空搭建由约1.2万颗卫星组成的“星链”网络,其中1584颗将部署在地球上空550千米处的近地轨道,并从2020年开始工作。该卫星仍在工作。